PHKEL EHAM-EHAM

Flight info

Callsign PHKEL
Flight time 0h 4m
Altitude 1500
Route VFR
Aircraft C172/L-SD/L1

Departure

Time 2026-04-27 12:12
Airport Amsterdam Airport Schiphol (EHAM)

Arrival

Time 2026-04-27 12:16
Airport Amsterdam Airport Schiphol (EHAM)
Time Latitude Longitude Altitude Speed Heading
2026-04-27 11:56 52.30022 4.78878 -6 ft 0 kts 133°
2026-04-27 12:04 52.30023 4.78881 -6 ft 1 kts 356°
2026-04-27 12:05 52.30037 4.78858 -6 ft 5 kts 313°
2026-04-27 12:05 52.30061 4.78807 -6 ft 0 kts 307°
2026-04-27 12:05 52.30065 4.78798 -6 ft 2 kts 311°
2026-04-27 12:05 52.30073 4.78749 -6 ft 5 kts 221°
2026-04-27 12:06 52.30033 4.78686 -6 ft 6 kts 228°
2026-04-27 12:06 52.30021 4.78663 -6 ft 0 kts 256°
2026-04-27 12:06 52.30027 4.78647 -6 ft 5 kts 306°
2026-04-27 12:06 52.30060 4.78590 -6 ft 0 kts 315°
2026-04-27 12:07 52.30065 4.78581 -6 ft 4 kts 309°
2026-04-27 12:07 52.30123 4.78490 -6 ft 16 kts 351°
2026-04-27 12:07 52.30155 4.78520 -6 ft 0 kts 44°
2026-04-27 12:08 52.30199 4.78580 -6 ft 34 kts 42°
2026-04-27 12:08 52.30517 4.79014 51 ft 77 kts 44°
2026-04-27 12:09 52.30945 4.79655 222 ft 92 kts 44°
2026-04-27 12:09 52.31095 4.80636 348 ft 100 kts 122°
2026-04-27 12:09 52.30651 4.81494 498 ft 106 kts 140°
2026-04-27 12:09 52.29954 4.81165 559 ft 108 kts 218°
2026-04-27 12:10 52.29457 4.80324 565 ft 96 kts 227°
2026-04-27 12:10 52.29205 4.79322 461 ft 95 kts 292°
2026-04-27 12:10 52.29597 4.78536 279 ft 86 kts 322°
2026-04-27 12:10 52.30090 4.78438 86 ft 69 kts 34°
2026-04-27 12:11 52.30402 4.78880 -6 ft 47 kts 44°
2026-04-27 12:11 52.30700 4.79304 69 ft 71 kts 43°
2026-04-27 12:11 52.31109 4.79924 250 ft 87 kts 45°
2026-04-27 12:11 52.30992 4.80747 516 ft 87 kts 130°
2026-04-27 12:12 52.30480 4.81356 709 ft 102 kts 164°
2026-04-27 12:12 52.29802 4.80852 823 ft 119 kts 220°
2026-04-27 12:12 52.29337 4.79756 663 ft 110 kts 264°
2026-04-27 12:12 52.29594 4.78642 338 ft 103 kts 313°
2026-04-27 12:13 52.30186 4.78543 82 ft 89 kts 41°
2026-04-27 12:13 52.30602 4.79162 -2 ft 69 kts 46°
2026-04-27 12:13 52.30942 4.79648 34 ft 72 kts 39°
2026-04-27 12:13 52.31244 4.80337 216 ft 88 kts 99°
2026-04-27 12:14 52.30833 4.81121 500 ft 92 kts 139°
2026-04-27 12:14 52.30180 4.80845 664 ft 107 kts 211°
2026-04-27 12:14 52.29549 4.80867 794 ft 88 kts 139°
2026-04-27 12:14 52.29409 4.81783 856 ft 90 kts 61°
2026-04-27 12:15 52.30013 4.81966 893 ft 103 kts 334°
2026-04-27 12:15 52.30332 4.81032 802 ft 104 kts 257°
2026-04-27 12:15 52.29872 4.80125 686 ft 101 kts 225°
2026-04-27 12:15 52.29532 4.79213 504 ft 88 kts 278°
2026-04-27 12:16 52.29828 4.78437 233 ft 74 kts 334°
2026-04-27 12:16 52.30231 4.78614 18 ft 53 kts 46°
2026-04-27 12:16 52.30468 4.78969 31 ft 49 kts 41°
2026-04-27 12:16 52.30806 4.79454 139 ft 79 kts 45°
2026-04-27 12:17 52.31294 4.80132 235 ft 102 kts 40°
2026-04-27 12:17 52.31837 4.80882 472 ft 101 kts 42°
2026-04-27 12:17 52.32349 4.81651 720 ft 100 kts 44°
2026-04-27 12:17 52.32870 4.82398 951 ft 101 kts 42°
2026-04-27 12:18 52.33422 4.83223 1004 ft 112 kts 44°
2026-04-27 12:18 52.34013 4.84089 1006 ft 115 kts 43°
2026-04-27 12:18 52.34621 4.84932 1007 ft 115 kts 42°
2026-04-27 12:18 52.35196 4.85785 1006 ft 113 kts 43°
2026-04-27 12:19 52.35777 4.86662 1006 ft 113 kts 44°
2026-04-27 12:19 52.36368 4.87516 1006 ft 113 kts 44°
2026-04-27 12:19 52.36971 4.88370 1007 ft 113 kts 43°
2026-04-27 12:19 52.37566 4.89227 1005 ft 113 kts 44°
2026-04-27 12:20 52.38165 4.90077 1008 ft 113 kts 41°
2026-04-27 12:20 52.38742 4.90946 1006 ft 113 kts 41°
2026-04-27 12:20 52.39324 4.91822 1006 ft 112 kts 43°
2026-04-27 12:20 52.39902 4.92676 1006 ft 113 kts 44°
2026-04-27 12:21 52.40485 4.93551 1006 ft 113 kts 43°
2026-04-27 12:21 52.41044 4.94454 1007 ft 113 kts 45°
2026-04-27 12:21 52.41630 4.95324 1006 ft 113 kts 44°
2026-04-27 12:21 52.42281 4.96054 1002 ft 115 kts 18°
2026-04-27 12:22 52.43100 4.96092 1006 ft 116 kts 358°
2026-04-27 12:22 52.43903 4.95970 1007 ft 115 kts 357°
2026-04-27 12:22 52.44699 4.95860 1006 ft 114 kts 357°
2026-04-27 12:22 52.45504 4.95735 1006 ft 115 kts 357°
2026-04-27 12:23 52.46297 4.95594 1007 ft 116 kts 357°
2026-04-27 12:23 52.47113 4.95445 1008 ft 116 kts 356°
2026-04-27 12:23 52.47892 4.95314 1004 ft 108 kts 356°
2026-04-27 12:23 52.48622 4.95332 1001 ft 102 kts 20°
2026-04-27 12:24 52.49220 4.95922 1007 ft 99 kts 45°
2026-04-27 12:24 52.49715 4.96717 1009 ft 98 kts 48°
2026-04-27 12:24 52.50186 4.97515 1008 ft 98 kts 50°
2026-04-27 12:24 52.50574 4.98424 1008 ft 97 kts 75°
2026-04-27 12:25 52.50451 4.99526 1008 ft 99 kts 122°
2026-04-27 12:25 52.49867 5.00176 1011 ft 101 kts 158°
2026-04-27 12:25 52.49182 5.00509 1009 ft 109 kts 161°
2026-04-27 12:25 52.48459 5.00830 1014 ft 124 kts 161°
2026-04-27 12:26 52.47591 5.01207 1006 ft 128 kts 162°
2026-04-27 12:26 52.46844 5.01916 1004 ft 119 kts 132°
2026-04-27 12:26 52.46354 5.02955 1004 ft 110 kts 122°
2026-04-27 12:26 52.45935 5.03970 1005 ft 106 kts 121°
2026-04-27 12:27 52.45518 5.04965 1005 ft 105 kts 125°
2026-04-27 12:27 52.44878 5.05550 1003 ft 110 kts 163°
2026-04-27 12:27 52.44075 5.05799 1011 ft 126 kts 167°
2026-04-27 12:27 52.43217 5.06274 1002 ft 131 kts 139°
2026-04-27 12:28 52.42672 5.07458 1008 ft 131 kts 117°
2026-04-27 12:28 52.42221 5.08757 1008 ft 132 kts 116°
2026-04-27 12:28 52.41759 5.10056 1003 ft 132 kts 125°
2026-04-27 12:28 52.40985 5.10767 1004 ft 127 kts 163°
2026-04-27 12:29 52.40129 5.11039 1009 ft 124 kts 167°
2026-04-27 12:29 52.39284 5.11254 1007 ft 120 kts 168°
2026-04-27 12:29 52.38456 5.11458 1008 ft 119 kts 168°
2026-04-27 12:29 52.37634 5.11444 1002 ft 122 kts 198°
2026-04-27 12:30 52.36877 5.10853 1006 ft 118 kts 207°
2026-04-27 12:30 52.36181 5.10209 1006 ft 112 kts 207°
2026-04-27 12:30 52.35511 5.09606 1007 ft 110 kts 207°
2026-04-27 12:30 52.34828 5.08996 1008 ft 112 kts 206°
2026-04-27 12:31 52.34134 5.08393 1008 ft 114 kts 208°
2026-04-27 12:31 52.33429 5.07787 1009 ft 115 kts 206°
2026-04-27 12:31 52.32725 5.07173 1008 ft 115 kts 207°
2026-04-27 12:31 52.32011 5.06558 1008 ft 116 kts 206°
2026-04-27 12:32 52.31300 5.05947 1010 ft 115 kts 205°
2026-04-27 12:32 52.30547 5.05313 1011 ft 129 kts 206°
2026-04-27 12:32 52.29714 5.04620 1010 ft 137 kts 207°
2026-04-27 12:32 52.28862 5.03889 1009 ft 138 kts 205°
2026-04-27 12:33 52.28007 5.03166 1008 ft 140 kts 205°
2026-04-27 12:33 52.27131 5.02430 1008 ft 141 kts 207°
2026-04-27 12:33 52.26292 5.01711 1006 ft 132 kts 207°
2026-04-27 12:33 52.25499 5.01037 1007 ft 128 kts 206°
2026-04-27 12:34 52.24703 5.00364 1008 ft 127 kts 206°
2026-04-27 12:34 52.23930 4.99707 1008 ft 126 kts 206°
2026-04-27 12:34 52.23142 4.99041 1008 ft 126 kts 206°
2026-04-27 12:34 52.22380 4.98369 1006 ft 126 kts 212°
2026-04-27 12:35 52.21919 4.97188 1004 ft 124 kts 260°
2026-04-27 12:35 52.22065 4.95825 1004 ft 121 kts 304°
2026-04-27 12:35 52.22667 4.94933 1008 ft 117 kts 329°
2026-04-27 12:35 52.23342 4.94145 1008 ft 120 kts 326°
2026-04-27 12:36 52.24027 4.93227 1011 ft 131 kts 321°
2026-04-27 12:36 52.24709 4.92180 1010 ft 136 kts 318°
2026-04-27 12:36 52.25367 4.91066 1010 ft 136 kts 316°
2026-04-27 12:36 52.26008 4.89908 1009 ft 136 kts 314°
2026-04-27 12:37 52.26631 4.88725 1007 ft 136 kts 313°
2026-04-27 12:37 52.27248 4.87518 1007 ft 137 kts 312°
2026-04-27 12:37 52.27839 4.86337 1005 ft 129 kts 312°
2026-04-27 12:37 52.28390 4.85224 1004 ft 123 kts 312°
2026-04-27 12:38 52.28914 4.84156 1005 ft 120 kts 311°
2026-04-27 12:38 52.29435 4.83089 1008 ft 120 kts 311°
2026-04-27 12:38 52.29780 4.81856 1006 ft 122 kts 277°
2026-04-27 12:38 52.29538 4.80653 858 ft 107 kts 239°
2026-04-27 12:39 52.29368 4.79581 582 ft 89 kts 302°
2026-04-27 12:39 52.29658 4.78755 383 ft 83 kts 307°
2026-04-27 12:39 52.30168 4.78537 74 ft 84 kts 42°
2026-04-27 12:39 52.30540 4.79072 0 ft 57 kts 43°
2026-04-27 12:40 52.30793 4.79439 -6 ft 43 kts 43°
2026-04-27 12:40 52.30990 4.79706 -6 ft 30 kts 47°
2026-04-27 12:40 52.31161 4.79953 -6 ft 33 kts 50°
2026-04-27 12:40 52.31112 4.80143 -6 ft 13 kts 134°
2026-04-27 12:41 52.31053 4.80247 -6 ft 12 kts 129°
2026-04-27 12:41 52.31072 4.80339 -6 ft 5 kts 355°
2026-04-27 12:41 52.31089 4.80316 -6 ft 8 kts 311°
2026-04-27 12:41 52.31099 4.80298 -6 ft 0 kts 311°